This demonstration page uses our WeatherBlox Daily Observations layout. Learn more.

Left ArrowRight Arrow

Hourly Observations for January 29, 2017

Temp ( °F °C ) Dew Point ( °F °C ) Humidity (%) Winds ( mph kmh ) Pressure ( in mb ) Visibility ( mi km ) Precip ( " mm )
12:53 am 00:53 Clear 36 2.2 34 1.1 93 93 Calm 30.50 1033 9 14 0.00 0.00
1:53 am 01:53 Clear 35 1.7 33 0.6 93 93 Calm 30.50 1033 10 16 0.00 0.00
2:53 am 02:53 Clear 34 1.1 32 0 92 92 Calm 30.49 1033 8 13 0.00 0.00
3:53 am 03:53 Clear 32 0 31 -0.6 96 96 Calm 30.47 1032 8 13 0.00 0.00
4:53 am 04:53 Clear 33 0.6 30 -1.1 89 89 Calm 30.47 1032 8 13 0.00 0.00
5:53 am 05:53 Clear 32 0 30 -1.1 92 92 Calm 30.47 1032 8 13 0.00 0.00
6:53 am 06:53 Clear 31 -0.6 30 -1.1 96 96 Calm 30.48 1032 9 14 0.00 0.00
7:53 am 07:53 Sunny 32 0 30 -1.1 92 92 Calm 30.49 1033 8 13 0.00 0.00
8:53 am 08:53 Sunny 36 2.2 33 0.6 89 89 Calm 30.49 1033 9 14 0.00 0.00
9:53 am 09:53 Sunny 42 5.6 36 2.2 79 79 Calm 30.50 1033 10 16 0.00 0.00
10:53 am 10:53 Sunny 48 8.9 37 2.8 66 66 Calm 30.48 1032 10 16 0.00 0.00
11:53 am 11:53 Sunny 55 12.8 40 4.4 57 57 Calm 30.44 1031 10 16 0.00 0.00
12:53 pm 12:53 Sunny 60 15.6 31 -0.6 33 33 NW 6 9 30.40 1030 10 16 0.00 0.00
1:53 pm 13:53 Sunny 63 17.2 32 0 31 31 Calm 30.37 1028 10 16 0.00 0.00
2:53 pm 14:53 Sunny 65 18.3 30 -1.1 27 27 Calm 30.35 1028 10 16 0.00 0.00
3:53 pm 15:53 Sunny 63 17.2 33 0.6 33 33 WSW 3 6 30.35 1028 10 16 0.00 0.00
4:53 pm 16:53 Sunny 57 13.9 42 5.6 58 58 Calm 30.34 1027 10 16 0.00 0.00
5:53 pm 17:53 Clear 53 11.7 41 5 64 64 Calm 30.33 1027 10 16 0.00 0.00
6:53 pm 18:53 Clear 48 8.9 39 3.9 71 71 Calm 30.34 1027 10 16 0.00 0.00
7:53 pm 19:53 Clear 46 7.8 40 4.4 79 79 Calm 30.33 1027 10 16 0.00 0.00
8:53 pm 20:53 Clear 44 6.7 39 3.9 83 83 Calm 30.32 1027 9 14 0.00 0.00
9:53 pm 21:53 Clear 43 6.1 38 3.3 82 82 NNW 3 6 30.31 1026 10 16 0.00 0.00
10:53 pm 22:53 Clear 40 4.4 37 2.8 89 89 N 5 7 30.31 1026 9 14 0.00 0.00
11:53 pm 23:53 Clear 38 3.3 36 2.2 93 93 Calm 30.30 1026 9 14 0.00 0.00

Powered by AerisWeather